Weather History for Nassau, Bahamas

Change the Weather History Date:

Monday, January 21, 2013

  Actual Average Record
Temperature  
Mean Temperature 75 °F -  
Max Temperature 84 °F 78 °F 84 °F (2012)
Min Temperature 66 °F 62 °F 48 °F (1997)
Cooling Degree Days 10    
Growing Degree Days 25 (Base 50)    
Moisture  
Dew Point 67 °F    
Average Humidity 80    
Maximum Humidity 94    
Minimum Humidity 59    
Precipitation  
Precipitation 0.00 in 0.06 in - ()
Sea Level Pressure  
Sea Level Pressure 30.04 in    
Wind  
Wind Speed 1 mph ()    
Max Wind Speed 4 mph    
Max Gust Speed -    
Visibility 6.9 miles    
Events Fog    
Averages and records for this station are not official NWS values.
T = Trace of Precipitation, MM = Missing Value Source: Averaged Metar Reports

Daily Weather History Graph

Daily Weather History Graph

Search for Another Location

Airport:

Trip Planner

Search our weather history database for the weather conditions in past years. The results will help you decide how hot, cold, wet, or windy it might be!

Date:

Astronomy

Jan. 21, 2013 Rise Set
Actual Time 6:56 AM EST 5:46 PM EST
Civil Twilight 6:31 AM EST 6:11 PM EST
Nautical Twilight 6:03 AM EST 6:38 PM EST
Astronomical Twilight 5:36 AM EST 7:06 PM EST
Moon 1:27 PM EST (1/21) 2:21 AM EST (1/21)
Length of Visible Light 11h 39m
Length of Day
10h 50m
Waxing Gibbous, 75% of the Moon is Illuminated
Jan 21
Waxing Gibbous
Jan 26
Full
Feb 3
Last Quarter
Feb 10
New
Feb 17
First Quarter

Hourly Weather History & Observations

Time (EST) Temp. Heat Index Dew Point Humidity Pressure Visibility Wind Dir Wind Speed Gust Speed Precip Events Conditions
12:00 AM 69.8 °F - 66.2 °F 88% 30.05 in 6.2 mi Calm Calm - N/A   Partly Cloudy
1:00 AM 69 °F - 67 °F 91% 30.04 in 8 mi Calm Calm - -   Clear
1:00 AM 68.0 °F - 66.2 °F 94% 30.04 in - Calm Calm - N/A   Clear
2:00 AM 69.8 °F - 66.2 °F 88% 30.03 in 6.2 mi Calm Calm - N/A   Scattered Clouds
3:00 AM 69.8 °F - 66.2 °F 88% 30.02 in 6.2 mi Calm Calm - N/A   Scattered Clouds
4:00 AM 70 °F - 69 °F 94% 30.03 in 8 mi Calm Calm - -   Partly Cloudy
4:00 AM 69.8 °F - 68.0 °F 94% 30.03 in 6.2 mi Calm Calm - N/A   Scattered Clouds
5:00 AM 69.8 °F - 66.2 °F 88% 30.03 in - Calm Calm - N/A   Clear
6:00 AM 68.0 °F - 64.4 °F 88% 30.03 in - Calm Calm - N/A   Clear
7:00 AM 66 °F - 65 °F 94% 30.05 in 7 mi Calm Calm - -   Scattered Clouds
7:00 AM 66.2 °F - 64.4 °F 94% 30.04 in 6.2 mi Calm Calm - N/A Fog Shallow Fog
8:00 AM 68.0 °F - 66.2 °F 94% 30.06 in 6.2 mi Calm Calm - N/A   Partly Cloudy
9:00 AM 73.4 °F - 69.8 °F 88% 30.08 in 6.2 mi Variable 2.3 mph - N/A   Scattered Clouds
10:00 AM 78 °F - 70 °F 70% 30.11 in 9 mi ESE 3.5 mph - -   Mostly Cloudy
10:00 AM 78.8 °F - 69.8 °F 74% 30.11 in 6.2 mi ESE 3.5 mph - N/A   Scattered Clouds
11:00 AM 78.8 °F - 68.0 °F 69% 30.08 in 6.2 mi SE 3.5 mph - N/A   Scattered Clouds
12:00 PM 78.8 °F - 68.0 °F 69% 30.06 in 6.2 mi SE 3.5 mph - N/A   Scattered Clouds
1:00 PM 81 °F - 69 °F 59% 30.04 in 9 mi SE 3.5 mph - -   Partly Cloudy
1:00 PM 80.6 °F 83.9 °F 69.8 °F 70% 30.03 in 6.2 mi SE 3.5 mph - N/A   Scattered Clouds
2:00 PM 80.6 °F 82.7 °F 66.2 °F 61% 30.01 in 6.2 mi SSE 3.5 mph - N/A   Scattered Clouds
3:00 PM 80.6 °F 82.7 °F 66.2 °F 61% 30.00 in 6.2 mi Variable 2.3 mph - N/A   Partly Cloudy
4:00 PM 80 °F - 68 °F 59% 30.01 in 9 mi SSE 3.5 mph - -   Partly Cloudy
4:00 PM 80.6 °F 83.2 °F 68.0 °F 65% 30.01 in 6.2 mi SSE 3.5 mph - N/A   Scattered Clouds
6:00 PM 75.2 °F - 68.0 °F 78% 30.03 in 6.2 mi Variable 1.2 mph - N/A   Mostly Cloudy
7:00 PM 76 °F - 69 °F 72% 30.03 in 9 mi 1.2 mph - -   Mostly Cloudy
8:00 PM 73.4 °F - 68.0 °F 83% 30.03 in 6.2 mi Calm Calm - N/A   Mostly Cloudy
9:00 PM 73.4 °F - 68.0 °F 83% 30.04 in 6.2 mi Calm Calm - N/A   Scattered Clouds
10:00 PM 73 °F - 69 °F 82% 30.05 in 9 mi Calm Calm - -   Partly Cloudy
10:00 PM 73.4 °F - 68.0 °F 83% 30.05 in 6.2 mi Calm Calm - N/A   Partly Cloudy
11:00 PM 71.6 °F - 66.2 °F 83% 30.04 in 6.2 mi Calm Calm - N/A   Partly Cloudy